Home > Weather > Tempe > Past weeks

Flag for U.S.A. Weather for the Past 2 Weeks in Tempe, Arizona, U.S.A.

Now
60 °F

Passing clouds.


Feels Like: 60 °F
Forecast: 51 / 82 °F
Wind: 9 mph from Northeast

Location: Phoenix Sky Harbor International Airport

Current Time: Feb 8, 2016 at 8:26:57 AM

Latest Report: Feb 8, 2016 at 7:51 AM


Visibility: 10 mi

Pressure: 30.17 "Hg

Humidity: 20%

Dew point: 19 °F

Location of TempeLocation

Historic Weather in Tempe — Graph

°F

Tempe Temperature Yesterday

Maximum temperature yesterday: 78 °F (at 4:51 PM)
Minimum temperature yesterday: 48 °F (at 4:51 AM)
Average temperature yesterday: 63 °F

High & Low Weather Summary for the Past Weeks

 TemperatureHumidityPressure
High78 °F (Feb 7, 4:51 PM)83% (Jan 31, 10:51 PM)30.36 "Hg (Jan 31, 10:51 PM)
Low36 °F (Feb 3, 6:51 AM)8% (Feb 6, 3:51 PM)29.53 "Hg (Jan 31, 9:51 PM)
Average56 °F32%30.08 "Hg
* Reported Jan 24 6:51 AM — Feb 8 6:51 AM, Tempe, Weather by CustomWeather, © 2016

Note: Actual official high and low records may vary slightly from our data, if they occured in-between our weather recording intervals... More about our weather records

Advertising

Tempe Weather History for the Previous 24 Hours

 ConditionsComfort  
Time TempWeatherWind HumidityBarometerVisibility
6:51 AM
Mon, Feb 8
61 °FPassing clouds.8 mph20%30.16 "Hg10 mi
5:51 AM54 °FPassing clouds.3 mph38%30.15 "Hg10 mi
4:51 AM54 °FPassing clouds.No wind40%30.14 "Hg10 mi
3:51 AM52 °FPassing clouds.5 mph43%30.12 "Hg10 mi
2:51 AM55 °FPassing clouds.No wind37%30.12 "Hg10 mi
1:51 AM57 °FClear.No wind34%30.13 "Hg10 mi
12:51 AM56 °FPassing clouds.No wind37%30.13 "Hg10 mi
11:51 PM
Sun, Feb 7
63 °FPassing clouds.6 mph23%30.12 "Hg10 mi
10:51 PM61 °FClear.6 mph29%30.13 "Hg10 mi
9:51 PM63 °FPassing clouds.5 mph26%30.11 "Hg10 mi
8:51 PM64 °FPassing clouds.No wind25%30.11 "Hg10 mi
7:51 PM67 °FPassing clouds.3 mph21%30.11 "Hg10 mi
6:51 PM73 °FPassing clouds.6 mph13%30.09 "Hg10 mi
5:51 PM75 °FPassing clouds.8 mph12%30.07 "Hg10 mi
4:51 PM78 °FPassing clouds.6 mph11%30.06 "Hg10 mi
3:51 PM77 °FPassing clouds.7 mph11%30.07 "Hg10 mi
2:51 PM77 °FPassing clouds.8 mph11%30.08 "Hg10 mi
1:51 PM75 °FPassing clouds.5 mph11%30.09 "Hg10 mi
12:51 PM73 °FPassing clouds.8 mph12%30.12 "Hg10 mi
11:51 AM69 °FPassing clouds.6 mph14%30.16 "Hg10 mi
10:51 AM65 °FPassing clouds.5 mph18%30.19 "Hg10 mi
9:51 AM62 °FPassing clouds.9 mph18%30.18 "Hg10 mi
8:51 AM59 °FPassing clouds.No wind23%30.17 "Hg10 mi
Weather by CustomWeather, © 2016

See weather overviewHow to use our weather pages